Change the Weather History Date:

Sunday, January 19, 2014

  Actual Average Record
Temperature  
Mean Temperature 51 °F -  
Max Temperature 63 °F 69 °F 81 °F (1987)
Min Temperature 39 °F 47 °F 23 °F (1977)
Degree Days  
Heating Degree Days 14    
Growing Degree Days 1 (Base 50)    
Moisture  
Dew Point 43 °F    
Average Humidity 75    
Maximum Humidity 96    
Minimum Humidity 54    
Precipitation  
Precipitation 0.00 in - - ()
Sea Level Pressure  
Sea Level Pressure 30.18 in    
Wind  
Wind Speed 4 mph (WSW)    
Max Wind Speed 15 mph    
Max Gust Speed 21 mph    
Visibility 10 miles    
Events Rain    
Averages and records for this station are not official NWS values.
T = Trace of Precipitation, MM = Missing Value Source: NWS Daily Summary

Daily Weather History Graph

Daily Weather History Graph

Search for Another Location

Airport or City:

Trip Planner

Search our weather history database for the weather conditions in past years. The results will help you decide how hot, cold, wet, or windy it might be!

Date:

Astronomy

Jan. 19, 2014 Rise Set
Actual Time 7:20 AM EST 5:55 PM EST
Civil Twilight 6:55 AM EST 6:20 PM EST
Nautical Twilight 6:26 AM EST 6:49 PM EST
Astronomical Twilight 5:58 AM EST 7:18 PM EST
Moon 9:11 PM EST (1/19) 9:08 AM EST (1/19)
Length of Visible Light 11h 25m
Length of Day
10h 34m
Waning Gibbous, 89% of the Moon is Illuminated
Jan 19
Waning Gibbous
Jan 24
Last Quarter
Jan 30
New
Feb 6
First Quarter
Feb 14
Full

Hourly Weather History & Observations

Time (EST) Temp. Windchill Dew Point Humidity Pressure Visibility Wind Dir Wind Speed Gust Speed Precip Events Conditions
12:53 AM 39.9 °F - 33.1 °F 77% 30.21 in 10.0 mi Calm Calm - N/A   Clear
1:53 AM 39.0 °F 36.8 °F 33.1 °F 79% 30.21 in 10.0 mi SW 3.5 mph - N/A   Clear
2:53 AM 39.0 °F - 33.1 °F 79% 30.19 in 10.0 mi Calm Calm - N/A   Clear
3:53 AM 39.0 °F 35.7 °F 33.1 °F 79% 30.20 in 10.0 mi SW 4.6 mph - N/A   Clear
4:53 AM 39.9 °F 37.8 °F 33.1 °F 77% 30.19 in 10.0 mi SSW 3.5 mph - N/A   Clear
5:53 AM 39.9 °F 36.7 °F 34.0 °F 79% 30.20 in 10.0 mi SSW 4.6 mph - N/A   Clear
6:53 AM 39.9 °F 37.8 °F 34.0 °F 79% 30.22 in 10.0 mi SSW 3.5 mph - N/A   Clear
7:53 AM 42.1 °F 39.2 °F 36.0 °F 79% 30.22 in 10.0 mi SSW 4.6 mph - N/A   Clear
8:53 AM 48.0 °F - 39.0 °F 71% 30.24 in 10.0 mi SSW 4.6 mph - N/A   Clear
9:53 AM 55.0 °F - 42.1 °F 62% 30.24 in 10.0 mi Variable 5.8 mph - N/A   Clear
10:53 AM 60.1 °F - 44.1 °F 55% 30.23 in 10.0 mi WSW 10.4 mph 16.1 mph N/A   Clear
11:53 AM 61.0 °F - 46.0 °F 58% 30.23 in 10.0 mi West 6.9 mph - N/A   Overcast
12:53 PM 63.0 °F - 46.0 °F 54% 30.19 in 10.0 mi West 12.7 mph 20.7 mph N/A   Overcast
1:53 PM 57.9 °F - 48.9 °F 72% 30.18 in 8.0 mi WNW 8.1 mph - 0.00 in Rain Light Rain
2:53 PM 61.0 °F - 51.1 °F 70% 30.15 in 10.0 mi West 8.1 mph - 0.00 in   Mostly Cloudy
3:53 PM 63.0 °F - 51.1 °F 65% 30.14 in 10.0 mi WSW 9.2 mph - N/A   Mostly Cloudy
4:53 PM 63.0 °F - 51.1 °F 65% 30.13 in 10.0 mi WSW 15.0 mph - N/A   Clear
5:53 PM 60.1 °F - 51.1 °F 72% 30.13 in 10.0 mi WSW 5.8 mph - N/A   Clear
6:53 PM 57.0 °F - 51.1 °F 81% 30.13 in 10.0 mi SW 5.8 mph - N/A   Clear
7:53 PM 55.9 °F - 51.1 °F 84% 30.14 in 10.0 mi WSW 4.6 mph - N/A   Clear
8:53 PM 53.1 °F - 50.0 °F 89% 30.16 in 10.0 mi Calm Calm - N/A   Clear
9:53 PM 52.0 °F - 50.0 °F 93% 30.17 in 10.0 mi West 4.6 mph - N/A   Clear
10:53 PM 50.0 °F - 48.0 °F 93% 30.17 in 10.0 mi Calm Calm - N/A   Clear
11:53 PM 50.0 °F - 48.9 °F 96% 30.15 in 10.0 mi Calm Calm - N/A   Clear